Weather History for Baraboo, WI

Change the Weather History Date:

Monday, April 15, 2013

  Actual Average Record
Temperature  
Mean Temperature 46 °F -  
Max Temperature 55 °F 58 °F 87 °F (2002)
Min Temperature 37 °F 34 °F 12 °F (2014)
Degree Days  
Heating Degree Days 19    
Moisture  
Dew Point 34 °F    
Average Humidity 71    
Maximum Humidity 100    
Minimum Humidity 37    
Precipitation  
Precipitation 0.20 in - - ()
Sea Level Pressure  
Sea Level Pressure 29.77 in    
Wind  
Wind Speed 7 mph (WSW)    
Max Wind Speed 25 mph    
Max Gust Speed 34 mph    
Visibility 7 miles    
Events Fog , Rain , Thunderstorm    
Averages and records for this station are not official NWS values.
T = Trace of Precipitation, MM = Missing Value Source: NWS Daily Summary

Daily Weather History Graph

Daily Weather History Graph

Search for Another Location

Airport:

Trip Planner

Search our weather history database for the weather conditions in past years. The results will help you decide how hot, cold, wet, or windy it might be!

Date:

Astronomy

Apr. 15, 2013 Rise Set
Actual Time 6:16 AM CDT 7:42 PM CDT
Civil Twilight 5:46 AM CDT 8:12 PM CDT
Nautical Twilight 5:10 AM CDT 8:48 PM CDT
Astronomical Twilight 4:32 AM CDT 9:27 PM CDT
Moon 9:36 AM CDT (4/15) 12:00 AM CDT (4/15)
Length of Visible Light 14h 26m
Length of Day
13h 26m
Waxing Crescent, 25% of the Moon is Illuminated
Apr 15
Waxing Crescent
Apr 18
First Quarter
Apr 25
Full
May 2
Last Quarter
May 9
New

Hourly Weather History & Observations

Time (CDT) Temp. Windchill Dew Point Humidity Pressure Visibility Wind Dir Wind Speed Gust Speed Precip Events Conditions
12:15 AM 41.0 °F - 37.4 °F 87% 29.61 in 3.0 mi Calm Calm - 0.04 in Rain Rain
12:35 AM 39.2 °F - 37.4 °F 93% 29.60 in 3.0 mi Calm Calm - 0.06 in Rain , Thunderstorm Light Thunderstorms and Rain
12:55 AM 39.2 °F - 37.4 °F 93% 29.60 in 2.0 mi Calm Calm - 0.09 in Rain Light Rain
1:15 AM 39.2 °F 37.0 °F 37.4 °F 93% 29.63 in 2.0 mi SSW 3.5 mph - N/A   Light Drizzle
1:35 AM 39.2 °F - 37.4 °F 93% 29.63 in 1.0 mi Calm Calm - 0.04 in Rain Rain
1:55 AM 39.2 °F 35.9 °F 37.4 °F 93% 29.61 in 1.0 mi East 4.6 mph - 0.10 in Rain Rain
2:15 AM 39.2 °F - 37.4 °F 93% 29.61 in 2.5 mi Calm Calm - 0.01 in Rain Light Rain
2:35 AM 39.2 °F 37.0 °F 37.4 °F 93% 29.62 in 2.0 mi South 3.5 mph - 0.01 in   Overcast
2:55 AM 39.2 °F 35.9 °F 37.4 °F 93% 29.63 in 1.5 mi SW 4.6 mph - 0.01 in   Mostly Cloudy
3:15 AM 41.0 °F 36.4 °F 37.4 °F 87% 29.65 in 1.8 mi West 6.9 mph - N/A   Overcast
3:35 AM 41.0 °F 38.0 °F 39.2 °F 93% 29.67 in 2.5 mi WSW 4.6 mph - N/A   Overcast
3:55 AM 41.0 °F 35.8 °F 41.0 °F 100% 29.69 in 3.0 mi WSW 8.1 mph - N/A   Overcast
4:15 AM 41.0 °F 36.4 °F 41.0 °F 100% 29.67 in 2.0 mi SSW 6.9 mph - N/A   Overcast
4:35 AM 41.0 °F 38.0 °F 41.0 °F 100% 29.68 in 1.2 mi SW 4.6 mph - N/A   Overcast
4:55 AM 41.0 °F 39.0 °F 41.0 °F 100% 29.69 in 1.0 mi WSW 3.5 mph - N/A   Overcast
5:15 AM 41.0 °F 37.1 °F 41.0 °F 100% 29.69 in 0.5 mi SSW 5.8 mph - N/A Fog Fog
5:35 AM 41.0 °F 38.0 °F 41.0 °F 100% 29.69 in 0.2 mi WSW 4.6 mph - N/A Fog Fog
5:55 AM 41.0 °F 37.1 °F 41.0 °F 100% 29.68 in 0.2 mi West 5.8 mph - N/A Fog Fog
6:15 AM 41.0 °F 38.0 °F 39.2 °F 93% 29.68 in 0.2 mi SW 4.6 mph - N/A Fog Fog
6:35 AM 41.0 °F 35.8 °F 39.2 °F 93% 29.69 in 0.2 mi SSW 8.1 mph - N/A Fog Fog
6:55 AM 41.0 °F 37.1 °F 39.2 °F 93% 29.69 in 0.2 mi SSW 5.8 mph - N/A Fog Fog
7:15 AM 39.2 °F 35.0 °F 37.4 °F 93% 29.69 in 0.2 mi SSW 5.8 mph - N/A Fog Fog
7:35 AM 41.0 °F 35.8 °F 39.2 °F 93% 29.70 in 0.2 mi South 8.1 mph - N/A Fog Fog
7:55 AM 42.8 °F 37.0 °F 42.8 °F 100% 29.71 in 4.0 mi South 10.4 mph - N/A   Scattered Clouds
8:15 AM 44.6 °F 40.7 °F 42.8 °F 93% 29.71 in 10.0 mi South 6.9 mph - N/A   Clear
8:35 AM 46.4 °F 42.4 °F 44.6 °F 93% 29.70 in 10.0 mi SSW 8.1 mph - N/A   Clear
8:55 AM 50.0 °F - 41.0 °F 71% 29.70 in 10.0 mi SSW 11.5 mph 17.3 mph N/A   Clear
9:15 AM 51.8 °F - 41.0 °F 67% 29.70 in 10.0 mi SSW 12.7 mph 21.9 mph N/A   Clear
9:55 AM 53.6 °F - 37.4 °F 54% 29.69 in 10.0 mi SSW 20.7 mph 28.8 mph N/A   Clear
10:15 AM 53.6 °F - 33.8 °F 47% 29.69 in 10.0 mi SW 20.7 mph 25.3 mph N/A   Clear
10:35 AM 55.4 °F - 32.0 °F 41% 29.69 in 10.0 mi SW 24.2 mph 34.5 mph N/A   Clear
10:55 AM 55.4 °F - 35.6 °F 47% 29.71 in 10.0 mi West 18.4 mph 25.3 mph N/A   Clear
11:15 AM 53.6 °F - 37.4 °F 54% 29.73 in 10.0 mi WSW 21.9 mph 27.6 mph N/A   Clear
11:35 AM 53.6 °F - 35.6 °F 51% 29.72 in 10.0 mi WSW 15.0 mph 26.5 mph N/A   Clear
11:55 AM 55.4 °F - 33.8 °F 44% 29.73 in 10.0 mi SW 21.9 mph 32.2 mph N/A   Clear
12:35 PM 53.6 °F - 32.0 °F 44% 29.77 in 10.0 mi WSW 25.3 mph 34.5 mph N/A   Clear
12:55 PM 53.6 °F - 32.0 °F 44% 29.78 in 10.0 mi WSW 19.6 mph 25.3 mph N/A   Scattered Clouds
1:15 PM 51.8 °F - 32.0 °F 47% 29.79 in 10.0 mi WSW 21.9 mph 29.9 mph N/A   Mostly Cloudy
1:35 PM 50.0 °F - 32.0 °F 50% 29.78 in 10.0 mi SW 17.3 mph 23.0 mph N/A   Overcast
1:55 PM 48.2 °F - 32.0 °F 54% 29.81 in 10.0 mi WSW 20.7 mph 26.5 mph N/A   Drizzle
2:15 PM 46.4 °F 40.1 °F 32.0 °F 57% 29.82 in 10.0 mi WSW 15.0 mph 25.3 mph N/A   Light Drizzle
2:35 PM 46.4 °F 39.0 °F 32.0 °F 57% 29.81 in 10.0 mi WSW 19.6 mph 27.6 mph N/A   Overcast
2:55 PM 46.4 °F 39.5 °F 32.0 °F 57% 29.82 in 10.0 mi WSW 17.3 mph 25.3 mph N/A   Overcast
3:15 PM 46.4 °F 39.5 °F 30.2 °F 53% 29.82 in 10.0 mi SW 17.3 mph 28.8 mph N/A   Mostly Cloudy
3:35 PM 48.2 °F - 30.2 °F 50% 29.82 in 10.0 mi SW 15.0 mph - N/A   Scattered Clouds
3:55 PM 46.4 °F 39.8 °F 30.2 °F 53% 29.82 in 10.0 mi SW 16.1 mph 20.7 mph N/A   Mostly Cloudy
4:15 PM 46.4 °F 41.5 °F 32.0 °F 57% 29.82 in 10.0 mi SW 10.4 mph - N/A   Overcast
4:35 PM 48.2 °F - 32.0 °F 54% 29.81 in 10.0 mi WSW 15.0 mph - N/A   Scattered Clouds
4:55 PM 50.0 °F - 28.4 °F 43% 29.83 in 10.0 mi WSW 11.5 mph 23.0 mph N/A   Clear
5:15 PM 50.0 °F - 24.8 °F 37% 29.82 in 10.0 mi West 10.4 mph 19.6 mph N/A   Clear
5:35 PM 50.0 °F - 26.6 °F 40% 29.83 in 10.0 mi WSW 11.5 mph - N/A   Mostly Cloudy
5:55 PM 46.4 °F 41.5 °F 26.6 °F 46% 29.84 in 10.0 mi WSW 10.4 mph - N/A   Mostly Cloudy
6:15 PM 46.4 °F 41.9 °F 28.4 °F 50% 29.84 in 10.0 mi West 9.2 mph - N/A   Clear
6:35 PM 46.4 °F 42.4 °F 28.4 °F 50% 29.84 in 10.0 mi WSW 8.1 mph - N/A   Clear
6:55 PM 46.4 °F 43.5 °F 30.2 °F 53% 29.84 in 10.0 mi WSW 5.8 mph - N/A   Scattered Clouds
7:15 PM 46.4 °F 42.4 °F 30.2 °F 53% 29.85 in 10.0 mi West 8.1 mph - N/A   Mostly Cloudy
7:35 PM 44.6 °F 40.2 °F 28.4 °F 53% 29.85 in 10.0 mi West 8.1 mph - N/A   Scattered Clouds
7:55 PM 44.6 °F 40.7 °F 30.2 °F 57% 29.87 in 10.0 mi WNW 6.9 mph - N/A   Clear
8:15 PM 42.8 °F 37.5 °F 30.2 °F 61% 29.87 in 10.0 mi WNW 9.2 mph - N/A   Clear
8:35 PM 42.8 °F 38.0 °F 30.2 °F 61% 29.89 in 10.0 mi WNW 8.1 mph - N/A   Clear
8:55 PM 41.0 °F 37.1 °F 30.2 °F 65% 29.89 in 10.0 mi WNW 5.8 mph - N/A   Clear
9:15 PM 41.0 °F 37.1 °F 30.2 °F 65% 29.91 in 10.0 mi West 5.8 mph - N/A   Clear
9:35 PM 39.2 °F 37.0 °F 30.2 °F 70% 29.91 in 10.0 mi West 3.5 mph - N/A   Clear
9:55 PM 37.4 °F 32.8 °F 30.2 °F 75% 29.95 in 10.0 mi West 5.8 mph - N/A   Scattered Clouds
10:15 PM 37.4 °F 32.8 °F 30.2 °F 75% 29.94 in 10.0 mi West 5.8 mph - N/A   Scattered Clouds
10:35 PM 37.4 °F 32.1 °F 30.2 °F 75% 29.94 in 10.0 mi West 6.9 mph - N/A   Clear
10:55 PM 37.4 °F 32.1 °F 30.2 °F 75% 29.95 in 10.0 mi West 6.9 mph - N/A   Clear
11:15 PM 37.4 °F 32.8 °F 30.2 °F 75% 29.95 in 10.0 mi West 5.8 mph - N/A   Clear
11:35 PM 37.4 °F 32.8 °F 30.2 °F 75% 29.96 in 10.0 mi West 5.8 mph - N/A   Clear
11:55 PM 37.4 °F 32.1 °F 28.4 °F 70% 29.96 in 10.0 mi West 6.9 mph - N/A   Clear